When you browse on this site, cookies collect data to enhance your experience and personalize the content and advertising you see.
Visit our Privacy Policy to learn more. By continuing to use the site, you agree to this use of cookies and data.
  • In Österreich
  • Länderverzeichnis
  • Für 7 Tage
  • Wassertemperatur
  • Satellitenkarten
  • Wetterkarte
  • News
  • Widgets
  • user-avatar
    Anmelden

    Stündliche Wetter Goldene Küste

    Heute, 20 März, Mittwoch

    Zeit Temperatur Niederschläge Wind Luftdruck Luftfeuchtigkeit
    00:00 +24°C° 0.4 mm 2 m/S 754 mmHg 90%
    01:00 +24°C° 0.4 mm 2 m/S 754 mmHg 91%
    02:00 +24°C° 0.4 mm 2 m/S 754 mmHg 92%
    03:00 +23°C° 0.4 mm 2 m/S 754 mmHg 92%
    04:00 +23°C° 0 mm 2 m/S 754 mmHg 92%
    05:00 +23°C° 0 mm 2 m/S 754 mmHg 91%
    06:00 +23°C° 0 mm 2 m/S 754 mmHg 91%
    07:00 +23°C° 0 mm 2 m/S 755 mmHg 90%
    08:00 +26°C° 0 mm 2 m/S 755 mmHg 79%
    09:00 +29°C° 0 mm 2 m/S 755 mmHg 67%
    10:00 +31°C° 0 mm 1 m/S 755 mmHg 58%
    11:00 +32°C° 0.1 mm 2 m/S 755 mmHg 54%
    12:00 +34°C° 0.1 mm 2 m/S 754 mmHg 50%
    13:00 +35°C° 0.1 mm 3 m/S 754 mmHg 45%
    14:00 +33°C° 0.4 mm 3 m/S 754 mmHg 56%
    15:00 +30°C° 0.4 mm 4 m/S 753 mmHg 67%
    16:00 +28°C° 0 mm 4 m/S 753 mmHg 78%
    17:00 +27°C° 0.4 mm 4 m/S 754 mmHg 82%
    18:00 +26°C° 0.4 mm 4 m/S 754 mmHg 86%
    19:00 +25°C° 0.4 mm 4 m/S 755 mmHg 89%
    20:00 +24°C° 0 mm 3 m/S 755 mmHg 90%
    21:00 +24°C° 0 mm 3 m/S 755 mmHg 90%
    22:00 +24°C° 0 mm 3 m/S 755 mmHg 90%
    23:00 +24°C° 0 mm 3 m/S 755 mmHg 91%

    Morgen, 21 März, Donnerstag

    Zeit Temperatur Niederschläge Wind Luftdruck Luftfeuchtigkeit
    00:00 +22°C° 0 mm 3 m/S 756 mmHg 91%
    01:00 +22°C° 0 mm 3 m/S 756 mmHg 91%
    02:00 +22°C° 0 mm 3 m/S 756 mmHg 92%
    03:00 +22°C° 0 mm 3 m/S 756 mmHg 93%
    04:00 +22°C° 0 mm 3 m/S 755 mmHg 93%
    05:00 +22°C° 0 mm 3 m/S 756 mmHg 92%
    06:00 +22°C° 0 mm 3 m/S 756 mmHg 91%
    07:00 +22°C° 0 mm 3 m/S 756 mmHg 90%
    08:00 +26°C° 0 mm 3 m/S 757 mmHg 80%
    09:00 +28°C° 0 mm 2 m/S 757 mmHg 69%
    10:00 +30°C° 0 mm 2 m/S 757 mmHg 59%
    11:00 +30°C° 0.3 mm 3 m/S 756 mmHg 64%
    12:00 +30°C° 0.3 mm 3 m/S 756 mmHg 68%
    13:00 +29°C° 0.3 mm 3 m/S 756 mmHg 72%
    14:00 +29°C° 0.6 mm 3 m/S 756 mmHg 74%
    15:00 +28°C° 0.6 mm 3 m/S 755 mmHg 76%
    16:00 +28°C° 0.6 mm 3 m/S 755 mmHg 79%
    17:00 +27°C° 0 mm 2 m/S 756 mmHg 82%
    18:00 +26°C° 0 mm 2 m/S 756 mmHg 85%
    19:00 +25°C° 0 mm 2 m/S 756 mmHg 88%
    20:00 +25°C° 0.2 mm 2 m/S 757 mmHg 88%
    21:00 +24°C° 0.2 mm 2 m/S 757 mmHg 89%
    22:00 +24°C° 0.2 mm 1 m/S 758 mmHg 90%
    23:00 +24°C° 0.9 mm 1 m/S 758 mmHg 91%

    übermorgen, 22 März, Freitag

    Zeit Temperatur Niederschläge Wind Luftdruck Luftfeuchtigkeit
    00:00 +23°C° 0.9 mm 1 m/S 757 mmHg 93%
    01:00 +23°C° 0.9 mm 1 m/S 757 mmHg 94%
    02:00 +23°C° 0.5 mm 1 m/S 757 mmHg 95%
    03:00 +23°C° 0.5 mm 1 m/S 757 mmHg 95%
    04:00 +23°C° 0.5 mm 2 m/S 757 mmHg 96%
    05:00 +23°C° 0.5 mm 2 m/S 757 mmHg 95%
    06:00 +23°C° 0.5 mm 2 m/S 758 mmHg 95%
    07:00 +23°C° 0.5 mm 2 m/S 758 mmHg 94%
    08:00 +26°C° 0.1 mm 2 m/S 759 mmHg 84%
    09:00 +28°C° 0.1 mm 2 m/S 759 mmHg 75%
    10:00 +30°C° 0.1 mm 2 m/S 759 mmHg 65%
    11:00 +29°C° 0.4 mm 2 m/S 758 mmHg 69%
    12:00 +29°C° 0.4 mm 2 m/S 758 mmHg 72%
    13:00 +29°C° 0.4 mm 2 m/S 757 mmHg 76%
    14:00 +29°C° 0.3 mm 2 m/S 757 mmHg 75%
    15:00 +29°C° 0.3 mm 2 m/S 756 mmHg 73%
    16:00 +29°C° 0.3 mm 2 m/S 756 mmHg 72%
    17:00 +27°C° 0.3 mm 2 m/S 756 mmHg 78%
    18:00 +26°C° 0.3 mm 2 m/S 757 mmHg 83%
    19:00 +25°C° 0.3 mm 2 m/S 757 mmHg 89%
    20:00 +24°C° 0.3 mm 2 m/S 757 mmHg 90%
    21:00 +24°C° 0.3 mm 2 m/S 758 mmHg 90%
    22:00 +24°C° 0.3 mm 2 m/S 758 mmHg 91%
    23:00 +24°C° 0.6 mm 2 m/S 758 mmHg 91%

    23 März, Samstag

    Zeit Temperatur Niederschläge Wind Luftdruck Luftfeuchtigkeit
    00:00 +24°C° 0.6 mm 2 m/S 757 mmHg 92%
    01:00 +24°C° 0.6 mm 2 m/S 757 mmHg 93%
    02:00 +24°C° 1.4 mm 2 m/S 757 mmHg 93%
    03:00 +24°C° 1.4 mm 2 m/S 757 mmHg 94%
    04:00 +24°C° 1.4 mm 3 m/S 757 mmHg 95%
    05:00 +23°C° 0.2 mm 2 m/S 757 mmHg 95%
    06:00 +23°C° 0.2 mm 1 m/S 757 mmHg 94%
    07:00 +23°C° 0.2 mm 1 m/S 758 mmHg 93%
    08:00 +26°C° 0 mm 1 m/S 758 mmHg 80%
    09:00 +28°C° 0 mm 1 m/S 758 mmHg 66%
    10:00 +31°C° 0 mm 1 m/S 758 mmHg 53%
    11:00 +32°C° 0 mm 2 m/S 757 mmHg 51%
    12:00 +32°C° 0 mm 2 m/S 757 mmHg 50%
    13:00 +34°C° 0 mm 3 m/S 756 mmHg 48%
    14:00 +33°C° 0 mm 3 m/S 756 mmHg 52%
    15:00 +32°C° 0 mm 4 m/S 755 mmHg 57%
    16:00 +32°C° 0 mm 4 m/S 755 mmHg 61%
    17:00 +29°C° 0 mm 3 m/S 755 mmHg 69%
    18:00 +27°C° 0 mm 3 m/S 756 mmHg 76%
    19:00 +26°C° 0 mm 3 m/S 756 mmHg 83%
    20:00 +25°C° 0 mm 3 m/S 757 mmHg 84%
    21:00 +25°C° 0 mm 3 m/S 757 mmHg 86%
    22:00 +25°C° 0 mm 3 m/S 757 mmHg 87%
    23:00 +25°C° 0.2 mm 3 m/S 757 mmHg 88%

    24 März, Sonntag

    Zeit Temperatur Niederschläge Wind Luftdruck Luftfeuchtigkeit
    00:00 +25°C° 0.2 mm 3 m/S 757 mmHg 90%
    01:00 +25°C° 0.2 mm 3 m/S 757 mmHg 91%
    02:00 +24°C° 0 mm 2 m/S 757 mmHg 92%
    03:00 +24°C° 0 mm 2 m/S 757 mmHg 93%
    04:00 +24°C° 0 mm 1 m/S 756 mmHg 94%
    05:00 +24°C° 0 mm 2 m/S 757 mmHg 93%
    06:00 +24°C° 0 mm 2 m/S 757 mmHg 91%
    07:00 +24°C° 0 mm 2 m/S 758 mmHg 90%
    08:00 +27°C° 0 mm 2 m/S 757 mmHg 79%
    09:00 +29°C° 0 mm 2 m/S 757 mmHg 68%
    10:00 +32°C° 0 mm 2 m/S 757 mmHg 57%
    11:00 +34°C° 0 mm 2 m/S 757 mmHg 52%
    12:00 +35°C° 0 mm 3 m/S 756 mmHg 47%
    13:00 +37°C° 0 mm 3 m/S 756 mmHg 42%
    14:00 +36°C° 0 mm 3 m/S 755 mmHg 48%
    15:00 +35°C° 0 mm 4 m/S 755 mmHg 53%
    16:00 +33°C° 0 mm 4 m/S 754 mmHg 58%
    17:00 +32°C° 0 mm 4 m/S 755 mmHg 66%
    18:00 +29°C° 0 mm 4 m/S 755 mmHg 75%
    19:00 +27°C° 0 mm 3 m/S 756 mmHg 84%
    20:00 +26°C° 0 mm 3 m/S 756 mmHg 86%
    21:00 +26°C° 0 mm 3 m/S 757 mmHg 89%
    22:00 +26°C° 0 mm 3 m/S 757 mmHg 91%
    23:00 +26°C° 0 mm 3 m/S 757 mmHg 91%

    25 März, Montag

    Zeit Temperatur Niederschläge Wind Luftdruck Luftfeuchtigkeit
    00:00 +26°C° 0 mm 3 m/S 757 mmHg 92%
    01:00 +25°C° 0 mm 3 m/S 757 mmHg 92%
    02:00 +25°C° 0 mm 3 m/S 757 mmHg 93%
    03:00 +25°C° 0 mm 3 m/S 757 mmHg 93%
    04:00 +25°C° 0 mm 3 m/S 756 mmHg 93%
    05:00 +26°C° 0 mm 3 m/S 757 mmHg 91%
    06:00 +26°C° 0 mm 3 m/S 757 mmHg 90%
    07:00 +26°C° 0 mm 3 m/S 758 mmHg 88%
    08:00 +28°C° 0 mm 3 m/S 757 mmHg 80%
    09:00 +29°C° 0 mm 3 m/S 757 mmHg 72%
    10:00 +31°C° 0 mm 3 m/S 757 mmHg 63%
    11:00 +33°C° 0 mm 3 m/S 757 mmHg 61%
    12:00 +33°C° 0 mm 4 m/S 756 mmHg 59%
    13:00 +34°C° 0 mm 4 m/S 755 mmHg 56%
    14:00 +33°C° 0.1 mm 5 m/S 755 mmHg 60%
    15:00 +32°C° 0.1 mm 5 m/S 755 mmHg 64%
    16:00 +30°C° 0.1 mm 5 m/S 755 mmHg 68%
    17:00 +29°C° 0 mm 5 m/S 755 mmHg 73%
    18:00 +28°C° 0 mm 4 m/S 755 mmHg 79%
    19:00 +27°C° 0 mm 4 m/S 756 mmHg 84%
    20:00 +26°C° 0 mm 4 m/S 756 mmHg 85%
    21:00 +26°C° 0 mm 4 m/S 756 mmHg 86%
    22:00 +26°C° 0 mm 4 m/S 756 mmHg 86%
    23:00 +26°C° 0 mm 4 m/S 756 mmHg 86%
    Mehr zeigen